Regional Weather Roundup
Issued by NWS

Home | Current Version | Previous Version | Text Only | Print | Product List | Glossary Off
Versions: 1 2 3 4 5 6 7 8 9 10 11 12 13 14 15 16 17 18 19 20 21 22 23 24 25 26 27 28 29 30 31 32 33 34 35 36 37 38 39 40 41 42 43 44 45 46 47 48 49 50

000
ASUS45 KSLC 190410
RWRUT

UTAH REGIONAL WEATHER ROUNDUP
NATIONAL WEATHER SERVICE SALT LAKE CITY UT
900 PM MST THU DEC 18 2014

UTZ001>011-023>025-190500-

NORTHERN UTAH

CITY           SKY/WX    TMP DP  RH WIND       PRES   REMARKS
BRIGHAM CITY   CLEAR     32  28  86 CALM      30.19R
HILL AFB       CLEAR     33  28  83 E8        30.17S WCI  26
LOGAN          CLEAR     31  27  85 CALM      30.17R
OGDEN          CLEAR     33  29  85 S7        30.17R WCI  27
PROVO AIRPORT  MOCLDY    30  28  93 CALM      30.20S
SALT LAKE CITY MOCLDY    34  29  82 SE7       30.18R WCI  28
VERNAL         CLOUDY    27  23  85 CALM      30.22S
WENDOVER       PTCLDY    27  19  74 CALM      30.18S
HEBER CITY     PTCLDY    25  23  93 CALM      30.17S
WEST JORDAN    CLEAR     30  30 100 SW7       30.18S WCI  23

$$

UTZ012>022-026-027-190500-

SOUTHERN/CENTRAL UTAH

CITY           SKY/WX    TMP DP  RH WIND       PRES   REMARKS
BLANDING       CLEAR     28  27  96 N7        30.25S WCI  21
BRYCE CANYON   CLEAR     16  13  88 CALM      30.19R
CEDAR CITY     CLEAR     30  23  75 SE7       30.17S WCI  23
DELTA          CLEAR     29  27  91 E3        30.18S
MILFORD        CLEAR     28  24  85 W6        30.17S WCI  22
MOAB/CYNLANDS  CLEAR     31  30  96 SW3       30.18R
PRICE          CLOUDY    28  24  85 N5        30.17R WCI  23
ST GEORGE      CLEAR     41  34  75 CALM      30.22R

$$

REGIONAL REPORTS     COLORADO/ARIZONA

CITY           SKY/WX    TMP DP  RH WIND       PRES   REMARKS
CRAIG, CO      FOG       19  15  84 CALM      30.19R VSB 1/4
GRAND JUNCTION PTCLDY    29  27  92 CALM      30.18R
RIFLE          CLOUDY    34  30  85 S3        30.18R
MONTROSE       CLOUDY    34  30  85 CALM      30.20R
CORTEZ         CLEAR     28  25  88 NE5       30.17S WCI  23
PAGE, AZ       CLEAR     38  31  76 SW5       30.18R HAZE    WCI  34
GRAND CANYON   CLEAR     25  23  92 CALM      30.20R
KINGMAN        CLEAR     39  36  89 E10       30.21S WCI  32
FLAGSTAFF      CLEAR     22  19  89 CALM      30.19R FOG

$$

REGIONAL REPORTS    NEVADA/IDAHO/WYOMING

CITY           SKY/WX    TMP DP  RH WIND       PRES   REMARKS
LAS VEGAS, NV  PTCLDY    50  38  63 SW7       30.17R
ELY            PTCLDY    24  20  84 S9        30.19R WCI  14
ELKO           CLEAR     27  25  92 CALM      30.13F
POCATELLO, ID  PTCLDY    35  28  75 S9        30.14S WCI  28
BURLEY         CLOUDY    37  28  70 S9        30.11F WCI  30
EVANSTON, WY   PTCLDY    23  21  92 SW9       30.14S WCI  13
ROCK SPRINGS   PTCLDY    22  16  78 SW14      30.12S WCI   9
KEMMERER       PTCLDY    23  21  93 W10       30.12F WCI  12

$$


USA.gov is the U.S. government's official web portal to all federal, state and local government web resources and services.